Estación municipal de Cànoves i Samalús (Vallès Oriental, P.N.del Montseny)

Consulta los datos en tiempo real de la estación municipal de Cànoves i Samalús





Hora UTC 15:10
Temperatura 34.1 ºC
Humedad 41.2 %
Presión 1019.8 hPa
Pluja 0.0 mm
Velocidad viento 7.2 km/h
Dirección viento SSE
Radiación solar 455.5 W/m²

Webcam

Datos diarios 2026-09-06



Hora UTC (invierno +1h; verano +2h)
Temperatura (ºC) Humedad (%) Presión (hPa) Velocidad viento (km/h) Precipitación (mm) Radiación solar (W/m²)
Hora UTC Aire Humedad Presión Vel. Dir. Vel. Max Dir. Intent. máx 5 min. Rad. Sol.
00:05 22.2 55.1 1020.5 5.6 NNW 5.6 N 0.0 0.1
00:10 22.0 55.8 1020.5 5.4 NNW 6.4 NNW 0.0 0.1
00:15 22.0 56.3 1020.5 4.8 NNW 6.0 NW 0.0 0.1
00:20 21.9 57.0 1020.5 4.5 NNW 6.0 NNW 0.0 0.1
00:25 21.9 57.0 1020.5 3.6 NNW 5.6 NNW 0.0 0.1
00:30 21.9 55.9 1020.4 3.0 NW 4.6 NNW 0.0 0.1
00:35 21.9 54.9 1020.4 0.9 NW 2.8 N 0.0 0.1
00:40 22.0 54.6 1020.4 1.3 NNW 5.3 WNW 0.0 0.1
00:45 22.2 54.3 1020.4 1.3 NW 3.9 NNW 0.0 0.1
00:50 22.2 54.0 1020.3 1.5 NNW 4.6 N 0.0 0.1
00:55 22.3 54.4 1020.3 3.6 NNW 4.9 N 0.0 0.1
01:00 22.3 54.4 1020.3 3.4 NNW 4.6 N 0.0 0.1
01:05 22.3 54.4 1020.2 3.8 NNW 4.9 NNW 0.0 0.1
01:10 22.2 55.3 1020.2 1.1 NNW 3.9 NNW 0.0 0.1
01:15 21.8 55.6 1020.1 1.4 S 3.9 S 0.0 0.1
01:20 21.9 54.7 1020.1 1.0 NNW 3.2 NNW 0.0 0.1
01:25 21.8 55.9 1020.1 0.6 W 2.8 WNW 0.0 0.1
01:30 21.7 56.5 1020.1 2.6 NW 6.0 NNW 0.0 0.1
01:35 21.9 56.7 1020.0 2.4 NNW 4.2 N 0.0 0.1
01:40 21.8 56.9 1020.0 5.1 NNW 7.8 N 0.0 0.1
01:45 22.0 53.6 1020.0 5.5 NNW 7.8 NNW 0.0 0.1
01:50 22.0 56.0 1020.0 1.0 NW 3.2 NNW 0.0 0.1
01:55 21.4 59.2 1020.0 0.5 SE 2.8 SE 0.0 0.1
02:00 20.9 58.7 1020.0 1.5 NNW 4.2 NNW 0.0 0.1
02:05 20.9 58.6 1020.0 3.7 NNW 4.6 NNW 0.0 0.1
02:10 21.0 56.7 1019.9 3.6 NW 5.3 NNW 0.0 0.1
02:15 21.3 55.4 1019.9 5.1 NNW 7.1 NNW 0.0 0.1
02:20 21.6 53.3 1019.9 5.1 NNW 7.4 NNW 0.0 0.1
02:25 21.8 50.9 1019.9 2.8 NW 4.6 NW 0.0 0.1
02:30 22.0 51.0 1019.8 3.2 NNW 5.6 ESE 0.0 0.1
02:35 21.4 57.4 1019.9 1.9 SE 6.0 SE 0.0 0.1
02:40 21.0 56.6 1019.9 0.9 SSW 3.5 SSW 0.0 0.1
02:45 21.0 56.6 1019.9 1.4 WSW 3.2 SSW 0.0 0.1
02:50 21.2 57.0 1019.9 2.2 WNW 3.2 WNW 0.0 0.1
02:55 21.3 57.4 1019.9 1.5 NW 2.8 NW 0.0 0.1
03:00 21.2 58.4 1019.9 1.3 NW 4.6 NW 0.0 0.1
03:05 21.2 58.7 1019.9 4.5 NNW 6.0 NNW 0.0 0.1
03:10 21.1 58.7 1019.9 1.8 NNW 5.3 NNW 0.0 0.1
03:15 20.9 59.5 1019.9 2.1 NW 2.8 NW 0.0 0.1
03:20 20.6 60.5 1019.9 2.4 NNW 4.6 NNW 0.0 0.1
03:25 20.4 61.1 1019.8 2.4 NNW 3.5 NNW 0.0 0.1
03:30 20.3 61.9 1019.8 2.9 NNW 4.2 NNW 0.0 0.1
03:35 20.2 62.1 1019.8 1.9 NNW 3.5 NNW 0.0 0.1
03:40 20.2 62.7 1019.8 2.5 N 3.5 NNW 0.0 0.1
03:45 20.3 63.0 1019.7 3.8 NNW 5.6 NNW 0.0 0.1
03:50 20.3 62.8 1019.7 2.1 N 4.9 NNW 0.0 0.1
03:55 20.3 63.0 1019.8 3.6 NNW 5.3 NNW 0.0 0.1
04:00 20.4 63.0 1019.8 4.1 NNW 6.0 N 0.0 0.1
04:05 20.4 62.4 1019.7 4.1 NW 5.6 NNW 0.0 0.1
04:10 20.5 61.6 1019.7 4.3 NNW 6.0 NNW 0.0 0.1
04:15 20.6 61.6 1019.7 3.5 NNW 4.9 NNW 0.0 0.1
04:20 20.6 61.9 1019.7 5.2 NNW 6.0 NNW 0.0 0.1
04:25 20.7 61.3 1019.7 4.6 NNW 6.4 N 0.0 0.1
04:30 20.7 60.5 1019.7 5.1 NNW 8.1 NNW 0.0 0.1
04:35 20.9 59.0 1019.7 4.3 N 7.8 N 0.0 0.1
04:40 20.9 59.0 1019.7 5.8 NNW 7.8 NNW 0.0 0.1
04:45 20.8 58.9 1019.7 5.0 NNW 8.1 NNW 0.0 0.1
04:50 20.7 59.1 1019.7 4.2 NNW 7.8 NNW 0.0 0.1
04:55 20.7 60.5 1019.7 4.9 N 8.5 N 0.0 0.2
05:00 20.6 60.0 1019.7 4.9 NNW 7.1 N 0.0 0.2
05:05 20.5 59.9 1019.7 5.4 NNW 7.8 NNW 0.0 0.5
05:10 20.5 59.6 1019.8 5.3 N 8.8 NNW 0.0 1.2
05:15 20.8 58.8 1019.9 5.1 NNW 7.4 NW 0.0 2.6
05:20 20.7 59.1 1019.9 4.7 N 8.5 N 0.0 4.4
05:25 20.7 59.2 1019.9 5.2 NNW 9.5 N 0.0 7.3
05:30 20.9 58.6 1019.9 5.1 N 7.4 NNW 0.0 11.0
05:35 21.3 57.5 1020.0 6.6 N 9.9 0.0 15.7
05:40 21.4 57.7 1020.0 4.9 N 8.1 NNW 0.0 20.9
05:45 21.7 56.6 1020.0 5.8 N 9.5 NNW 0.0 26.4
05:50 21.9 56.3 1020.1 6.3 NNW 8.5 NNW 0.0 32.1
05:55 22.0 57.0 1020.1 5.0 NNW 7.1 NNW 0.0 38.9
06:00 22.1 56.3 1020.2 5.2 NNW 7.1 NNW 0.0 42.7
06:05 22.4 55.6 1020.2 5.0 N 8.1 NNW 0.0 47.5
06:10 22.8 54.8 1020.3 5.9 NNW 9.2 NNW 0.0 52.1
06:15 23.0 54.7 1020.3 3.9 N 6.4 NNW 0.0 56.3
06:20 23.1 55.2 1020.4 2.8 N 4.6 NNW 0.0 60.5
06:25 23.3 55.4 1020.5 4.5 NNW 6.0 N 0.0 65.0
06:30 23.5 54.9 1020.5 4.5 NNW 5.6 N 0.0 68.9
06:35 23.9 54.7 1020.5 2.2 N 4.9 N 0.0 72.5
06:40 24.0 55.5 1020.5 0.0 NNE 0.0 N 0.0 75.7
06:45 24.1 55.7 1020.5 2.1 N 3.5 0.0 78.5
06:50 24.4 55.5 1020.5 0.4 N 3.9 ESE 0.0 80.7
06:55 24.7 55.6 1020.6 0.5 SSE 3.9 SSE 0.0 82.3
07:00 25.2 55.2 1020.6 2.2 SE 4.2 SSE 0.0 83.5
07:05 26.0 52.3 1020.6 3.1 ESE 7.8 ESE 0.0 84.8
07:10 27.1 49.9 1020.7 4.7 E 9.5 ENE 0.0 86.1
07:15 27.7 48.4 1020.7 5.4 E 9.9 ESE 0.0 87.7
07:20 28.0 47.3 1020.7 6.4 E 11.6 ENE 0.0 89.9
07:25 28.2 46.9 1020.8 4.6 E 10.9 ENE 0.0 92.5
07:30 28.3 47.0 1020.8 2.7 ENE 6.7 E 0.0 95.5
07:35 28.6 46.4 1020.8 3.2 ESE 7.4 E 0.0 115.6
07:40 28.8 46.1 1020.8 4.8 ESE 8.8 ESE 0.0 105.9
07:45 28.9 45.8 1020.8 5.9 SE 8.8 ESE 0.0 153.9
07:50 29.1 45.5 1020.8 5.4 ESE 10.2 SE 0.0 177.4
07:55 29.3 45.0 1020.9 6.2 E 11.3 E 0.0 251.2
08:00 29.5 44.3 1020.8 7.0 E 14.5 E 0.0 228.7
08:05 29.5 44.2 1020.9 5.7 E 12.0 ENE 0.0 386.6
08:10 29.8 43.6 1021.0 5.5 E 10.9 E 0.0 396.9
08:15 29.8 43.4 1021.0 5.3 ENE 11.3 E 0.0 416.1
08:20 30.0 43.3 1021.0 6.1 E 11.3 ESE 0.0 429.5
08:25 30.2 43.3 1021.0 5.6 ESE 9.5 SSE 0.0 442.6
08:30 30.5 42.9 1021.1 7.1 SE 12.4 SSE 0.0 438.2
08:35 30.8 42.4 1021.1 7.8 SE 12.0 ESE 0.0 479.9
08:40 30.7 42.4 1021.2 8.6 SE 15.5 ESE 0.0 492.9
08:45 30.8 42.2 1021.2 8.2 ESE 12.0 ESE 0.0 506.1
08:50 30.9 42.0 1021.2 7.5 SE 10.6 SSE 0.0 518.6
08:55 31.1 41.4 1021.2 7.0 ESE 11.6 ESE 0.0 531.2
09:00 31.4 40.8 1021.3 6.5 ESE 14.1 SE 0.0 543.0
09:05 31.4 40.4 1021.3 7.9 ESE 13.4 ESE 0.0 554.5
09:10 31.4 40.3 1021.3 7.3 ESE 10.6 ESE 0.0 566.0
09:15 31.7 39.7 1021.4 6.1 ESE 11.6 E 0.0 576.3
09:20 31.9 39.3 1021.4 6.6 SE 12.7 S 0.0 586.7
09:25 32.0 38.8 1021.4 7.5 ESE 12.0 E 0.0 596.7
09:30 32.0 38.6 1021.4 4.5 ENE 9.9 ENE 0.0 607.1
09:35 31.8 39.1 1021.4 5.5 ENE 9.9 E 0.0 617.5
09:40 32.2 38.7 1021.4 3.1 ESE 7.8 SSE 0.0 626.1
09:45 32.7 38.1 1021.4 3.6 SSW 7.8 E 0.0 635.1
09:50 32.8 37.4 1021.3 6.9 SSE 13.8 SSE 0.0 644.4
09:55 32.7 37.2 1021.3 3.0 ESE 10.6 SSE 0.0 652.6
10:00 33.0 36.9 1021.3 4.5 ESE 9.2 ESE 0.0 660.5
10:05 33.5 35.5 1021.2 4.9 ESE 10.6 SE 0.0 668.5
10:10 33.5 35.3 1021.2 4.7 SE 8.8 SSE 0.0 675.4
10:15 33.7 35.8 1021.2 5.6 SE 12.0 SE 0.0 682.2
10:20 33.7 35.3 1021.1 5.2 SSE 13.1 SSW 0.0 688.8
10:25 33.9 34.9 1021.0 4.7 ESE 10.6 SE 0.0 694.9
10:30 34.0 35.0 1021.0 7.2 SSE 14.1 SE 0.0 701.0
10:35 33.9 35.6 1021.0 5.5 SE 12.7 SSE 0.0 705.0
10:40 34.0 35.9 1020.9 7.8 SE 14.5 SE 0.0 711.2
10:45 34.2 36.4 1020.9 7.1 SSE 14.8 SSE 0.0 718.0
10:50 34.2 35.7 1020.9 9.5 SE 16.2 SE 0.0 720.4
10:55 34.4 35.9 1020.9 6.9 S 13.4 SSW 0.0 725.9
11:00 34.6 35.4 1020.8 9.9 SE 18.4 SE 0.0 715.0
11:05 34.5 35.7 1020.8 7.7 SSE 16.2 SE 0.0 731.5
11:10 34.5 35.6 1020.8 8.2 SE 16.2 SE 0.0 732.9
11:15 34.9 35.3 1020.7 10.2 SSE 20.5 SSE 0.0 737.6
11:20 34.6 35.9 1020.7 10.6 SE 18.4 SE 0.0 741.7
11:25 34.5 36.4 1020.7 9.1 SSE 19.8 SSE 0.0 742.7
11:30 34.4 36.8 1020.7 9.2 SSE 16.9 SE 0.0 742.4
11:35 34.4 36.5 1020.6 14.0 SE 20.5 SE 0.0 746.0
11:40 34.4 36.4 1020.6 9.4 SE 17.6 ESE 0.0 746.6
11:45 34.6 36.2 1020.6 9.6 SSE 16.9 S 0.0 745.2
11:50 34.6 36.5 1020.5 11.1 SSE 20.8 SE 0.0 744.6
11:55 34.7 36.5 1020.6 9.2 SE 14.1 SSE 0.0 746.6
12:00 34.8 36.3 1020.6 11.6 SE 17.3 ESE 0.0 745.9
12:05 34.4 36.8 1020.5 12.5 SE 18.4 SE 0.0 745.9
12:10 34.4 36.8 1020.5 13.0 SE 20.5 E 0.0 742.8
12:15 34.5 37.0 1020.5 12.4 SE 21.5 SE 0.0 741.2
12:20 34.3 37.2 1020.4 11.3 SE 17.3 ESE 0.0 738.4
12:25 34.5 37.1 1020.5 10.5 SE 17.6 SE 0.0 736.7
12:30 34.4 37.4 1020.5 9.8 SSE 16.6 SSE 0.0 733.9
12:35 34.2 37.7 1020.4 10.0 SSE 16.6 SSE 0.0 731.9
12:40 33.9 38.3 1020.4 10.8 SE 18.7 SE 0.0 727.1
12:45 33.7 39.1 1020.4 9.3 S 16.2 SSW 0.0 707.5
12:50 33.9 39.0 1020.4 8.7 SSE 17.6 SE 0.0 697.8
12:55 33.8 39.1 1020.3 12.0 SE 20.8 ESE 0.0 703.4
13:00 34.0 39.0 1020.3 9.3 SSE 17.3 SE 0.0 669.3
13:05 33.8 39.1 1020.3 13.1 SE 21.2 ESE 0.0 700.1
13:10 33.7 39.5 1020.3 10.4 SSE 17.6 ESE 0.0 688.8
13:15 33.9 39.5 1020.3 11.2 SE 17.6 ESE 0.0 685.7
13:20 33.7 40.0 1020.3 10.6 SE 16.6 SE 0.0 681.1
13:25 33.5 40.2 1020.3 9.2 SSE 17.6 SSE 0.0 673.9
13:30 33.5 40.0 1020.3 10.4 SE 18.7 SSE 0.0 668.2
13:35 33.3 40.1 1020.2 11.5 SE 19.8 SE 0.0 660.5
13:40 33.4 40.0 1020.2 11.6 SSE 19.4 SE 0.0 651.9
13:45 33.5 39.9 1020.2 9.7 SE 17.3 SE 0.0 641.9
13:50 33.6 39.7 1020.2 10.7 SE 19.1 ESE 0.0 633.4
13:55 33.7 39.9 1020.2 6.8 SSE 13.8 S 0.0 623.5
14:00 33.9 39.1 1020.2 9.9 SE 17.6 SE 0.0 611.7
14:05 33.5 39.8 1020.1 10.0 SE 16.6 S 0.0 604.8
14:10 33.6 39.9 1020.0 9.2 SSE 15.5 S 0.0 594.5
14:15 33.7 40.1 1020.1 9.7 SSE 16.9 S 0.0 583.9
14:20 33.7 40.2 1020.1 7.1 S 19.8 S 0.0 573.4
14:25 34.0 39.9 1020.0 8.5 SSE 14.5 SE 0.0 563.4
14:30 33.7 40.7 1020.0 8.5 SSE 13.8 S 0.0 551.3
14:35 33.8 40.5 1020.0 11.8 SSE 18.4 SSE 0.0 540.8
14:40 33.8 40.6 1019.9 8.1 SSE 14.8 SSE 0.0 529.1
14:45 33.8 40.9 1019.9 7.4 SSE 15.2 SSE 0.0 517.2
14:50 33.9 40.8 1019.9 8.2 SSE 15.9 SSE 0.0 503.9
14:55 33.9 40.8 1019.9 7.0 SSE 14.1 SE 0.0 492.1
15:00 33.9 40.8 1019.8 5.5 SE 10.9 ESE 0.0 481.0
15:05 34.1 40.7 1019.8 8.4 SE 13.8 SSE 0.0 468.4
15:10 34.1 41.2 1019.8 7.2 SSE 16.2 SSE 0.0 455.5
Máxima 34.9 63.0 1021.4 14.0 SE 21.5 SE 0.0 746.6
Mínima 20 34.9 1019.7
Total 0.0